Skip Page Navigation
NASA JPL Caltech
NASA Logo - Jet Propulsion Laboratory + View the NASA Portal
+ Center for Near-Earth Object Studies
JPL Home Earth Solar System Stars & Galaxies Technology
JPL Solar System Dynamics
BODIES ORBITS EPHEMERIDES TOOLS PHYSICAL DATA DISCOVERY FAQ SITE MAP
IMPORTANT: The SSD Announcement email list is now available. Major changes are coming in the near future, including possible hostname and/or URL changes. To be notified of such changes, subscribe to this email list.

Please visit this page for more details.


JPL Small-Body Database Browser
Search: [ help ]  
434886 (2006 SS378)
Classification: Main-belt Asteroid          SPK-ID: 2434886
Ephemeris | Orbit Diagram | Orbital Elements | Mission Design | Physical Parameters | Discovery Circumstances ]

[ show orbit diagram ]
Orbital Elements at Epoch 2459000.5 (2020-May-31.0) TDB
Reference: JPL 10 (heliocentric ecliptic J2000)
 Element Value Uncertainty (1-sigma)   Units 
e .03366276532821556 7.0722e-08  
a 3.04625103981043 5.5923e-08 au
q 2.943705805926459 2.2195e-07 au
i 11.70535410567347 7.9534e-06 deg
node 120.9871709199466 3.9389e-05 deg
peri 222.6563623544066 0.0001412 deg
M 247.8486413090677 0.00013937 deg
tp 2459605.491121293066
(2022-Jan-25.99112129)
0.00075865 TDB
period 1941.989880530204
5.32
5.3477e-05
1.464e-07
d
yr
n .1853768671038144 5.1047e-09 deg/d
Q 3.148796273694401 5.7806e-08 au
  Orbit Determination Parameters
   # obs. used (total)      90  
   data-arc span      5404 days (14.80 yr)  
   first obs. used      2005-07-09  
   last obs. used      2020-04-25  
   planetary ephem.      DE431  
   SB-pert. ephem.      SB431-N16  
   condition code      0  
   norm. resid. RMS      .5868  
   source      ORB  
   producer      Otto Matic  
   solution date      2020-May-22 03:27:53  

Additional Information
 Earth MOID = 1.94206 au 
 Jupiter MOID = 2.0896 au 
 T_jup = 3.206 
[ show covariance matrix ]

Ephemeris | Orbit Diagram | Orbital Elements | Mission Design | Physical Parameters | Discovery Circumstances ]

Physical Parameter Table
Parameter Symbol Value Units Sigma Reference Notes
absolute magnitude H 16.5   n/a MPO434588  

434886 (2006 SS378)          Discovered 2006-Sep-18 by Becker, A. C. at Apache Point
Reference: Last Updated: 2015-06-04

Alternate Designations
 2006 SS378 = 2005 ND73 
Ephemeris | Orbit Diagram | Orbital Elements | Mission Design | Physical Parameters | Discovery Circumstances ]
ABOUT SSD CREDITS/AWARDS PRIVACY/COPYRIGHT GLOSSARY LINKS
FirstGov 2020-May-30 21:21 UT
(server date/time)  
NASA Home Page
Site Manager:   Ryan S. Park
Webmaster  Alan B. Chamberlin